Weather observations for the past three days for
New York City, Central Park
Imperial (Metric)
Date Time (edt) Wind (mph) Vis. (mi.) Weather Sky Cond. Temperature (ºF) Relative Humidity Wind Chill (°F) Heat Index (°F) Pressure Precipitation (in)
Air Dwpt 6 hour altimeter (in) sea level (mb) 1 hr 3 hr 6 hr
Max. Min.
16 07:51 E 9 10.00 Fair CLR 64.9 46.9 70 63 52% 30.27 1024.1
16 06:51 Vrbl 5 10.00 Fair CLR 63 48.9 60% 30.26 1023.6
16 05:51 NE 8 10.00 Fair CLR 63 50 63% 30.24 1023.1
16 04:51 NE 8 10.00 Fair CLR 64.9 48.9 56% 30.21 1022.1
16 03:51 Vrbl 6 10.00 Fair CLR 66 48.9 54% 30.19 1021.4
16 02:51 Vrbl 5 10.00 Fair CLR 68 48 49% 30.18 1021.2
16 01:51 NE 5 10.00 Fair CLR 69.1 50 78.1 66.9 51% 30.16 1020.3
16 00:51 Vrbl 3 10.00 Fair CLR 69.1 50 51% 30.15 1019.9
15 23:51 Calm 10.00 Fair CLR 70 51.1 51% 30.15 1019.9
15 22:51 NW 5 10.00 Fair CLR 73 48 41% 30.13 1019.4
15 21:51 Calm 10.00 Fair CLR 73.9 46.9 38% 30.11 1018.5
15 20:51 Calm 10.00 Fair CLR 75.9 46 35% 78 30.08 1017.7
15 19:51 Vrbl 6 10.00 Fair CLR 78.1 45 80.1 75 31% 78 30.06 1017.1
15 18:51 Vrbl 7 10.00 Fair CLR 79 46 31% 79 30.04 1016.3
15 17:51 Calm 10.00 Fair CLR 79 46.9 32% 79 30.03 1016.1
15 16:51 Vrbl 3 10.00 Fair CLR 80.1 48.9 34% 79 30.03 1015.9
15 15:51 Calm 10.00 A Few Clouds FEW075 79 51.1 38% 79 30.01 1015.5
15 14:51 Vrbl 3 G 21 10.00 A Few Clouds FEW070 78.1 55 45% 79 30.01 1015.3
15 13:51 Calm 10.00 Partly Cloudy SCT065 75 57 79 68 54% 78 30.03 1016.0
15 12:51 Vrbl 3 10.00 Fair CLR 78.1 54 43% 79 30.04 1016.2
15 11:51 NE 8 10.00 Fair CLR 77 54 45% 78 30.03 1016.0
15 10:51 NE 10 G 20 10.00 Fair CLR 73 55 53% 30.03 1015.8
15 09:51 Vrbl 6 10.00 Fair CLR 72 57 59% 30.01 1015.5
15 08:51 Vrbl 5 10.00 Fair CLR 70 57.9 66% 30.01 1015.2
15 07:51 Vrbl 7 10.00 Fair CLR 68 57.9 68 64.9 70% 29.99 1014.7
15 06:51 Vrbl 6 G 18 10.00 Fair CLR 66.9 59 76% 29.97 1013.8
15 05:51 Vrbl 3 10.00 Fair CLR 64.9 62.1 90% 29.94 1013.0
15 04:51 Calm 10.00 A Few Clouds FEW100 66 63 90% 29.92 1012.2
15 03:51 W 3 10.00 Fair CLR 66 64 93% 29.91 1011.7
15 02:51 Calm 10.00 Fair CLR 66.9 64 91% 29.9 1011.6
15 01:51 Calm 10.00 Fair CLR 66.9 66 68 64.9 97% 29.91 1011.8
15 00:51 NW 3 10.00 Fair CLR 66 66 100% 29.91 1011.7
14 23:51 Calm 10.00 Overcast OVC070 66.9 66 97% 29.91 1011.9
14 22:51 Calm 10.00 Overcast BKN070 OVC090 66 64.9 96% 29.91 1011.8
14 21:51 E 3 10.00 Overcast BKN075 OVC090 64.9 64.9 100% 29.89 1011.4
14 20:51 Vrbl 5 8.00 Overcast FEW055 BKN090 OVC110 66 66 100% 29.9 1011.5
14 19:51 Calm 4.00 Fog/Mist OVC090 66 66 84.9 64.9 100% 29.87 1010.6 0.28 0.28
14 18:51 NW 14 G 33 8.00 Light Rain FEW024 BKN048 OVC120 73 64 74% 29.89 1011.3
14 17:51 Vrbl 3 10.00 Mostly Cloudy BKN120 79 69.1 72% 82 29.84 1009.5
14 16:51 Vrbl 3 10.00 Mostly Cloudy BKN045 80.1 70 71% 83 29.84 1009.5
14 15:51 Vrbl 5 10.00 A Few Clouds FEW047 84.9 69.1 59% 89 29.85 1009.7
14 14:51 W 6 10.00 A Few Clouds FEW060 82 69.1 65% 85 29.87 1010.5
14 13:51 Calm 10.00 Fair CLR 84 68 84 71.1 59% 87 29.88 1011.0
14 12:51 Calm 9.00 Fair CLR 81 70 69% 84 29.9 1011.4
14 11:51 Calm 10.00 Fair CLR 82.9 70 65% 87 29.91 1011.7
14 10:51 Calm 10.00 Fair CLR 80.1 68 67% 83 29.92 1012.1
14 09:51 Vrbl 3 10.00 Fair CLR 75.9 68 77% 77 29.92 1012.1
14 08:51 Vrbl 3 10.00 Fair CLR 73.9 66 76% 29.93 1012.4
14 07:51 SW 7 10.00 Fair CLR 71.1 64 71.1 69.1 79% 29.93 1012.4
14 06:51 SW 3 10.00 Fair CLR 70 63 79% 29.91 1011.9
14 05:51 Vrbl 5 10.00 Fair CLR 69.1 62.1 78% 29.92 1012.0
14 04:51 Vrbl 5 10.00 Fair CLR 70 62.1 76% 29.93 1012.4
14 03:51 Vrbl 3 10.00 Fair CLR 70 61 73% 29.92 1012.2
14 02:51 Vrbl 5 10.00 Fair CLR 70 62.1 76% 29.94 1012.8
14 01:51 Calm 10.00 Fair CLR 71.1 62.1 75.9 71.1 73% 29.95 1013.2
14 00:51 SW 9 10.00 Fair CLR 72 63 73% 29.97 1013.7
13 23:51 Vrbl 5 10.00 Fair CLR 73 63 71% 29.99 1014.4
13 22:51 Vrbl 5 10.00 Fair CLR 73.9 63 69% 29.98 1014.3
13 21:51 Vrbl 5 10.00 Fair CLR 75 62.1 64% 77 29.99 1014.4
13 20:51 SE 3 10.00 Fair CLR 75 63 66% 77 29.98 1014.3
13 19:51 Vrbl 5 10.00 Fair CLR 75.9 62.1 84 75.9 62% 78 29.98 1014.4
13 18:51 S 6 10.00 Fair CLR 77 62.1 60% 79 29.97 1014.1
13 17:51 Vrbl 3 10.00 Fair CLR 79 60.1 52% 80 29.98 1014.1
13 16:51 Vrbl 6 10.00 A Few Clouds FEW085 80.1 57.9 47% 81 29.99 1014.5
13 15:51 Vrbl 6 10.00 Fair CLR 81 61 51% 82 29.99 1014.7
13 14:51 Vrbl 7 10.00 Fair CLR 81 60.1 49% 82 30.01 1015.2
13 13:51 Vrbl 3 10.00 Fair CLR 82.9 61 84 69.1 48% 83 30.01 1015.3
13 12:51 Calm 10.00 Fair CLR 82.9 55.9 40% 82 30.02 1015.5
13 11:51 Vrbl 5 10.00 Fair CLR 81 57.9 45% 81 30.03 1015.9
13 10:51 Calm 10.00 Fair CLR 78.1 60.1 54% 79 30.04 1016.2
13 09:51 Calm 10.00 Fair CLR 75 57.9 55% 78 30.05 1016.6
Date Time (edt) Wind (mph) Vis. (mi.) Weather Sky Cond. Air Dwpt Max. Min. Relative Humidity Wind Chill (°F) Heat Index (°F) altimeter (in) sea level (mb) 1 hr 3 hr 6 hr
6 hour
Temperature (ºF) Pressure Precipitation (in)